Location: Domont
(49.0278°N, 2.3264°E)
Time: 18:21:07
(UTC+00:00)

UWE-3 - Pass Details

Date: 07 July 2022
Orbit: 583 x 677 km, 97.7° (Epoch: 10 August)

Event Time Altitude Azimuth Distance (km) Brightness Sun altitude
Rises 02:37:55 0° 21° (NNE) 2,921 ? -9.8°
Reaches altitude 10° 02:40:18 10° 32° (NNE) 2,025 ? -9.5°
Maximum altitude 02:44:16 32° 96° (E) 1,107 ? -9.1°
Drops below altitude 10° 02:48:19 10° 160° (SSE) 2,061 ? -8.7°
Sets 02:50:45 0° 170° (S) 2,981 ? -8.5°
